[[{"header":{"parameterUnit":"m.s-1","parameterCategory":2,"la1":30.2991,"la2":30.254,"lo1":-89.0895,"lo2":-89.0444,"dy":0.0017,"dx":0.0017,"nx":28,"ny":28,"refTime":"2025-06-14T03:00:00:Z","depth":"0","parameterNumber":2,"parameterNumberName":"U-component_of_CURRENTS"},"data":[0,0,0,0,0,0,0,0,0,0,0,0,0,0,0,0,0,0,0,0,0,0,0,0,0,0,0,0,0,0,0,0,0,0,0,0,0,0,0,0,0,0,0,0,0,0,0,0,0,0,0,0,0,0,0,0,0,0,0.2536,0.2538,0,0.2626,0.2626,0.2627,0.2645,0.2645,0.2644,0.2644,0.2667,0.2668,0.2669,0,0,0,0,0,0,0,0,0,0,0,0,0,0.2402,0.2404,0.2536,0.2538,0.2539,0.2625,0.2626,0.2627,0.2645,0.2645,0.2644,0.2644,0.2667,0.2668,0.2669,0,0,0,0,0,0,0,0,0,0,0,0,0,0.247,0.2404,0.2536,0.2561,0.2564,0.2625,0.2626,0.2628,0.2645,0.2645,0.2644,0.2644,0.2666,0.2668,0.2669,0.2691,0,0,0.2674,0.2674,0,0,0,0,0,0,0,0,0.2466,0.2474,0.2556,0.2559,0.2563,0.2626,0.2588,0.2646,0.2646,0.2611,0.2644,0.2643,0.2649,0.2652,0.2667,0.2692,0.2693,0.2674,0.2675,0.2675,0.2676,0,0,0,0,0,0,0,0.2461,0.2471,0.2569,0.2557,0.2562,0.2574,0.2583,0.2599,0.2629,0.2614,0.2617,0.2631,0.265,0.2666,0.2668,0.2693,0.2674,0.2675,0.2676,0.2677,0.2754,0.2755,0,0,0,0,0,0,0.2456,0.2466,0.2566,0.2572,0.2515,0.2577,0.2587,0.2604,0.2631,0.2636,0.2632,0.2632,0.2664,0.2666,0.2669,0.2714,0.2675,0.2677,0.2678,0.2753,0.2754,0.2755,0,0,0,0,0,0,0.2453,0.2464,0.2562,0.2523,0.2537,0.258,0.26,0.2606,0.2626,0.2645,0.2648,0.2646,0.2663,0.2666,0.2692,0.2714,0.2677,0.2679,0.2751,0.2753,0.2755,0.2793,0,0,0,0,0,0,0.2448,0.2462,0.2473,0.2523,0.2539,0.2603,0.2601,0.2609,0.2638,0.2639,0.2658,0.266,0.2663,0.269,0.2693,0.2716,0.268,0.275,0.2752,0.2754,0.2791,0.2796,0.2801,0,0,0,0,0,0.2443,0.2465,0.2473,0.2486,0.2552,0.2605,0.2614,0.264,0.2639,0.2654,0.2668,0.2659,0.2706,0.2692,0.2696,0.2719,0.2749,0.2752,0.2754,0.2788,0.2795,0.2801,0,0,0,0,0,0,0.2417,0.2471,0.248,0.2518,0.2559,0.2609,0.263,0.2645,0.267,0.2669,0.2676,0.2679,0.271,0.271,0.2695,0.2748,0.2726,0.2729,0.2751,0.2757,0.2762,0.2814,0.2681,0,0,0,0,0,0.2415,0.2442,0.2495,0.2524,0.2546,0.2587,0.2611,0.2631,0.2661,0.2672,0.2685,0.2701,0.2726,0.2736,0.2754,0.2783,0.2847,0.28,0.2805,0.281,0.2855,0.2978,0.3,0.2764,0.2764,0.2764,0,0,0.2411,0.2447,0.246,0.252,0.2552,0.2592,0.2599,0.2642,0.2674,0.267,0.2709,0.272,0.2738,0.2773,0.2787,0.2774,0.2906,0.2813,0.2817,0.2861,0.2983,0.3007,0.3028,0.2766,0.2765,0.2765,0,0,0.2425,0.2451,0.248,0.2514,0.257,0.2599,0.2612,0.2663,0.2686,0.2721,0.2733,0.2771,0.2784,0.2825,0.284,0.2888,0.293,0.2874,0.2945,0.3062,0.3084,0.3103,0.3201,0.3229,0.2876,0.2876,0.2876,0,0.2417,0.2471,0.2496,0.2536,0.2575,0.2602,0.2648,0.2675,0.2725,0.2769,0.2733,0.2828,0.2821,0.2916,0.2922,0.2904,0.2975,0.2915,0.3073,0.3094,0.3114,0.3209,0.324,0.2878,0.2878,0.2878,0.2878,0,0.246,0.25,0.2524,0.2582,0.2616,0.2666,0.2708,0.2746,0.2764,0.2805,0.2893,0.2907,0.2979,0.2964,0.2951,0.3088,0.3093,0.3066,0.3062,0.314,0.3234,0.3266,0.2881,0.2881,0.288,0.2879,0,0,0.2471,0.2541,0.2551,0.2597,0.2654,0.27,0.2749,0.2837,0.2916,0.2935,0.3049,0.3072,0.3108,0.3132,0.3135,0.3219,0.3383,0.3202,0.3207,0.331,0.3652,0.359,0.3618,0.339,0.3396,0.34,0.3657,0,0.2511,0.2588,0.2613,0.2697,0.2753,0.2793,0.2848,0.292,0.2982,0.3088,0.3132,0.3225,0.3163,0.3216,0.3292,0.337,0.3471,0.3317,0.3554,0.3562,0.3506,0.3654,0.3487,0.3698,0.3688,0.3693,0.3697,0,0.2571,0.2617,0.2698,0.2796,0.2825,0.2872,0.3011,0.3066,0.3196,0.3246,0.3352,0.3396,0.3528,0.3452,0.3666,0.3574,0.3635,0.3678,0.3688,0.3652,0.356,0.3621,0.3756,0.3642,0.3746,0.3742,0.3739,0,0.261,0.2695,0.2767,0.2797,0.2891,0.2951,0.3008,0.3128,0.3201,0.3378,0.3461,0.3611,0.37,0.3814,0.3868,0.3805,0.4095,0.4016,0.4028,0.4023,0.3942,0.392,0.401,0.4206,0.4206,0.4205,0.4204,0,0.2675,0.2739,0.2796,0.2843,0.2944,0.2999,0.3126,0.3211,0.3343,0.3448,0.3558,0.3679,0.38,0.3942,0.3982,0.4114,0.4199,0.4107,0.4114,0.3944,0.392,0.3862,0.3813,0.4215,0.4212,0.4211,0.4209,0,0.2725,0.2756,0.2849,0.294,0.2969,0.3047,0.3151,0.3238,0.3376,0.3526,0.3587,0.3781,0.3969,0.4074,0.4272,0.4262,0.4275,0.4402,0.418,0.4156,0.4021,0.3979,0.3998,0.3888,0.4492,0.4493,0.4493,0,0.2762,0.2816,0.2902,0.2925,0.2969,0.3063,0.3112,0.3239,0.332,0.3571,0.3641,0.3881,0.4009,0.4285,0.4329,0.4454,0.4306,0.4375,0.4217,0.4056,0.4016,0.3832,0.3723,0.4126,0.4124,0.4121,0.412,0,0.2829,0.2855,0.2898,0.2937,0.2987,0.3041,0.3128,0.3186,0.334,0.3473,0.3649,0.3788,0.4057,0.4123,0.4297,0.4332,0.4156,0.4332,0.4245,0.3833,0.3567,0.3446,0.39,0.41,0.4102,0.4103,0.4104,0.4105,0.2853,0.287,0.289,0.2921,0.2959,0.2976,0.2984,0.308,0.3175,0.3334,0.3539,0.3688,0.3903,0.4113,0.4125,0.4049,0.4031,0.3949,0.3948,0.3802,0.3583,0.3987,0.4125,0.4127,0.4129,0.4131,0.4132,0,0.2826,0.2823,0.286,0.2858,0.2845,0.2893,0.2942,0.2927,0.2974,0.3184,0.3319,0.3505,0.3626,0.3755,0.38,0.3686,0.3494,0.3605,0.3312,0.3251,0.3704,0.3569,0.3494,0.3494,0.3494,0.3494,0.3494,0.3494,0.28,0.278,0.2777,0.2717,0.2711,0.2652,0.2641,0.2655,0.2749,0.2857,0.2961,0.3135,0.3406,0.3594,0.3509,0.3414,0.314,0.3018,0.3026,0.334,0.3369,0.3397,0.3257,0.3118,0.3118,0.2394,0.2389,0.2386]},{"header":{"parameterUnit":"m.s-1","parameterCategory":2,"la1":30.2991,"la2":30.254,"lo1":-89.0895,"lo2":-89.0444,"dy":0.0017,"dx":0.0017,"nx":28,"ny":28,"refTime":"2025-06-14T03:00:00:Z","depth":"0","parameterNumber":3,"parameterNumberName":"V-component_of_CURRENTS"},"data":[0,0,0,0,0,0,0,0,0,0,0,0,0,0,0,0,0,0,0,0,0,0,0,0,0,0,0,0,0,0,0,0,0,0,0,0,0,0,0,0,0,0,0,0,0,0,0,0,0,0,0,0,0,0,0,0,0,0,0.0077,0.0077,0,0.0031,0.003,0.003,-0.0015,-0.0016,-0.0016,-0.0016,-0.0108,-0.011,-0.0112,0,0,0,0,0,0,0,0,0,0,0,0,0,0.0095,0.0095,0.0077,0.0077,0.0076,0.0031,0.003,0.0029,-0.0015,-0.0016,-0.0016,-0.0016,-0.0107,-0.0109,-0.0112,0,0,0,0,0,0,0,0,0,0,0,0,0,0.0069,0.0095,0.0077,0.0051,0.0048,0.0031,0.003,0.0029,-0.0015,-0.0016,-0.0016,-0.0017,-0.0106,-0.0109,-0.0112,-0.0122,0,0,-0.0122,-0.0123,0,0,0,0,0,0,0,0,0.0071,0.0068,0.0055,0.0053,0.005,0.0015,0.0003,-0.0023,-0.0015,0.0006,-0.0016,-0.0017,-0.0069,-0.0075,-0.0085,-0.0126,-0.013,-0.0122,-0.0124,-0.0126,-0.0126,0,0,0,0,0,0,0,0.0073,0.007,0.0056,0.0055,0.0051,0.003,0.0026,-0.0002,-0.0031,0.0004,0.0002,0.0001,-0.0071,-0.0082,-0.0088,-0.0131,-0.0122,-0.0125,-0.0127,-0.0128,-0.0181,-0.018,0,0,0,0,0,0,0.0086,0.0072,0.0058,0.0055,0.0062,0.0031,0.0026,0.0025,-0.0029,-0.0037,0.0001,-0.0001,-0.0077,-0.0084,-0.0091,-0.0087,-0.0126,-0.0129,-0.013,-0.0181,-0.0181,-0.018,0,0,0,0,0,0,0.0086,0.0085,0.006,0.0064,0.006,0.0031,0.003,0.0024,0.0016,-0.0031,-0.004,-0.0,-0.0077,-0.0087,-0.0108,-0.0092,-0.013,-0.0133,-0.0182,-0.0181,-0.018,-0.0091,0,0,0,0,0,0,0.0087,0.0085,0.0087,0.0065,0.006,0.006,0.0031,0.0024,0.0017,0.0014,-0.0035,-0.0044,-0.0078,-0.0103,-0.0111,-0.0097,-0.0135,-0.0182,-0.0181,-0.018,-0.0095,-0.0088,-0.0081,0,0,0,0,0,0.0088,0.0102,0.0088,0.0086,0.0065,0.0061,0.0056,0.0032,0.0018,0.0021,-0.0012,-0.0043,-0.0103,-0.0105,-0.0115,-0.0101,-0.0183,-0.0182,-0.0181,-0.0098,-0.0089,-0.0081,0,0,0,0,0,0,0.0114,0.0098,0.0082,0.0091,0.0079,0.0054,0.0056,0.004,0.0016,0.0011,-0.0036,-0.0047,-0.0064,-0.0094,-0.0095,-0.0115,-0.0148,-0.0149,-0.0082,-0.0074,-0.0068,-0.0014,-0.0138,0,0,0,0,0,0.012,0.0122,0.0105,0.011,0.0108,0.0082,0.0077,0.0062,0.004,0.0029,-0.0003,-0.0039,-0.0067,-0.0078,-0.0112,-0.0118,-0.0125,-0.0116,-0.011,-0.0103,-0.0067,-0.0055,-0.0042,-0.0176,-0.0176,-0.0176,0,0,0.0131,0.0123,0.0124,0.0115,0.0103,0.0111,0.0077,0.0077,0.0085,0.0023,0.0021,-0.002,-0.0065,-0.0075,-0.0084,-0.0096,-0.0077,-0.0102,-0.0096,-0.0062,-0.0052,-0.0038,-0.0027,-0.0175,-0.0176,-0.0176,0,0,0.0166,0.0149,0.0166,0.016,0.015,0.0135,0.014,0.012,0.0112,0.0102,0.006,0.0046,-0.0008,-0.0019,-0.0037,-0.0009,-0.0047,-0.0038,0.0049,0.006,0.0072,0.0082,0.0065,0.0073,-0.0027,-0.0027,-0.0027,0,0.0181,0.0202,0.0172,0.0188,0.0198,0.0153,0.0183,0.0164,0.014,0.0161,0.0111,0.0085,0.0028,0.0056,0.005,0.0011,-0.0001,0.0022,0.0072,0.0083,0.0092,0.0071,0.008,-0.0022,-0.0023,-0.0023,-0.0024,0,0.0231,0.0246,0.0258,0.0263,0.0265,0.0283,0.0261,0.0265,0.0244,0.0239,0.0255,0.0191,0.0194,0.0153,0.01,0.0145,0.0106,0.0075,0.006,0.0112,0.0085,0.0092,-0.0016,-0.0018,-0.0019,-0.002,0,0,0.0282,0.0294,0.0299,0.0335,0.0313,0.0338,0.0345,0.0375,0.0431,0.0378,0.0455,0.0376,0.0365,0.0346,0.0288,0.0279,0.0296,0.0207,0.0206,0.0205,0.0304,0.0254,0.0256,0.0273,0.0276,0.0278,0.025,0,0.0339,0.0403,0.0382,0.0453,0.0496,0.0466,0.0496,0.0512,0.0512,0.0566,0.052,0.0549,0.0432,0.0445,0.042,0.0337,0.0324,0.0306,0.0242,0.0241,0.0203,0.0267,0.0237,0.021,0.0257,0.0258,0.0259,0,0.0407,0.0448,0.0529,0.0598,0.0615,0.0648,0.0731,0.0749,0.0787,0.0792,0.0811,0.0773,0.0763,0.0651,0.0566,0.0559,0.0449,0.0367,0.0363,0.0303,0.0206,0.0169,0.022,0.0034,0.0269,0.0268,0.0267,0,0.0505,0.0561,0.0644,0.066,0.0714,0.0768,0.0798,0.084,0.0893,0.0955,0.1008,0.0983,0.0985,0.0868,0.067,0.0631,0.0563,0.0492,0.0347,0.034,0.03,0.0287,0.0186,0.045,0.045,0.045,0.045,0,0.0594,0.0664,0.071,0.0766,0.0887,0.0888,0.1021,0.1042,0.1109,0.1203,0.1148,0.1216,0.1038,0.0961,0.0766,0.0586,0.0641,0.0393,0.035,0.0324,0.0314,0.0136,0.0029,0.0449,0.0449,0.045,0.045,0,0.0692,0.0711,0.0821,0.0905,0.0941,0.1032,0.1134,0.1228,0.1274,0.1395,0.1423,0.1404,0.13,0.1094,0.0902,0.072,0.0428,0.0457,0.0421,0.0375,0.0066,-0.0035,-0.0164,-0.0247,0.032,0.0319,0.0318,0,0.0747,0.0817,0.0927,0.0987,0.1031,0.1154,0.1238,0.1305,0.1398,0.1509,0.158,0.1535,0.1522,0.1229,0.089,0.0583,0.0382,0.0357,0.0282,0.0077,-0.0067,-0.0146,-0.0212,0.0244,0.0243,0.0242,0.0241,0,0.0856,0.0892,0.0971,0.1094,0.1196,0.1314,0.1439,0.1538,0.1627,0.1727,0.1832,0.1843,0.1568,0.1271,0.0852,0.0614,0.0221,0.0323,0.0137,-0.0095,-0.0209,-0.032,0.0206,0.023,0.0231,0.0232,0.0233,0.0233,0.0923,0.0989,0.1083,0.1204,0.1309,0.1454,0.1573,0.1706,0.1863,0.2025,0.2008,0.205,0.1614,0.1047,0.0714,0.0097,0.0116,-0.0083,-0.0178,-0.0231,-0.0332,0.0161,0.0118,0.0119,0.0119,0.0119,0.012,0,0.1001,0.107,0.1182,0.1322,0.1443,0.1492,0.1689,0.1818,0.2011,0.214,0.2227,0.2011,0.1466,0.0898,0.0081,-0.0312,-0.0465,-0.0534,-0.0654,-0.0689,-0.0226,-0.0252,-0.0407,-0.0407,-0.0406,-0.0406,-0.0406,-0.0406,0.1043,0.1156,0.1218,0.1416,0.1512,0.169,0.1808,0.1998,0.213,0.229,0.2301,0.2281,0.1831,0.0389,-0.0559,-0.077,-0.1044,-0.1115,-0.1222,-0.0927,-0.0892,-0.0859,-0.0908,-0.1198,-0.1199,-0.1647,-0.1652,-0.1656]}],[{"header":{"parameterUnit":"m.s-1","parameterCategory":2,"la1":30.2991,"la2":30.254,"lo1":-89.0895,"lo2":-89.0444,"dy":0.0017,"dx":0.0017,"nx":28,"ny":28,"refTime":"2025-06-14T03:00:00:Z","depth":"2","parameterNumber":2,"parameterNumberName":"U-component_of_CURRENTS"},"data":[0,0,0,0,0,0,0,0,0,0,0,0,0,0,0,0,0,0,0,0,0,0,0,0,0,0,0,0,0,0,0,0,0,0,0,0,0,0,0,0,0,0,0,0,0,0,0,0,0,0,0,0,0,0,0,0,0,0,0.2263,0.2264,0,0.236,0.2361,0.2362,0.2392,0.2392,0.2391,0.2391,0.2426,0.2427,0.2428,0,0,0,0,0,0,0,0,0,0,0,0,0,0.2154,0.2155,0.2263,0.2264,0.2265,0.236,0.2361,0.2362,0.2392,0.2392,0.2391,0.2391,0.2425,0.2427,0.2428,0,0,0,0,0,0,0,0,0,0,0,0,0,0.222,0.2156,0.2263,0.2292,0.2296,0.2359,0.2361,0.2362,0.2392,0.2392,0.2391,0.2391,0.2425,0.2427,0.2429,0.2453,0,0,0.2434,0.2435,0,0,0,0,0,0,0,0,0.2216,0.2224,0.2287,0.229,0.2295,0.2364,0.2335,0.239,0.2393,0.2355,0.2391,0.239,0.24,0.2404,0.2424,0.2454,0.2456,0.2435,0.2436,0.2437,0.2437,0,0,0,0,0,0,0,0.2211,0.222,0.23,0.2288,0.2293,0.2318,0.2326,0.2346,0.2378,0.2358,0.2361,0.2373,0.2402,0.2422,0.2424,0.2456,0.2435,0.2436,0.2438,0.2438,0.2528,0.2529,0,0,0,0,0,0,0.2199,0.2216,0.2297,0.2303,0.2254,0.232,0.2329,0.2342,0.2379,0.2385,0.2373,0.2374,0.2419,0.2422,0.2426,0.2483,0.2437,0.2438,0.244,0.2527,0.2528,0.253,0,0,0,0,0,0,0.2197,0.2206,0.2294,0.2262,0.2275,0.2322,0.2336,0.2344,0.2372,0.2392,0.2396,0.2394,0.2418,0.2423,0.2451,0.2483,0.2439,0.2441,0.2525,0.2527,0.2529,0.258,0,0,0,0,0,0,0.2193,0.2204,0.2217,0.2261,0.2277,0.2336,0.2337,0.2346,0.238,0.2382,0.2411,0.2413,0.2418,0.2448,0.2453,0.2485,0.2443,0.2524,0.2526,0.2528,0.2577,0.2583,0.2589,0,0,0,0,0,0.2189,0.2207,0.2217,0.2227,0.229,0.2337,0.2347,0.2378,0.2381,0.24,0.2417,0.2412,0.2466,0.245,0.2456,0.249,0.2523,0.2526,0.2528,0.2574,0.2582,0.2589,0,0,0,0,0,0,0.2171,0.2214,0.2225,0.2256,0.2295,0.2342,0.2368,0.2385,0.2416,0.242,0.2428,0.2432,0.2473,0.2471,0.2453,0.2521,0.2494,0.2498,0.2527,0.2535,0.2541,0.2572,0.2444,0,0,0,0,0,0.2172,0.2194,0.2239,0.2265,0.2286,0.2328,0.2353,0.2376,0.2407,0.2422,0.244,0.2461,0.249,0.2501,0.2525,0.2558,0.26,0.2583,0.2589,0.2594,0.2623,0.2721,0.274,0.2539,0.2539,0.2539,0,0,0.217,0.2199,0.2211,0.2263,0.2296,0.2335,0.2342,0.2388,0.2424,0.242,0.2471,0.2487,0.2504,0.2548,0.2565,0.2548,0.267,0.2598,0.2602,0.2629,0.2726,0.2746,0.2764,0.254,0.254,0.254,0,0,0.2184,0.2207,0.2234,0.2267,0.2322,0.235,0.2362,0.2416,0.2446,0.2487,0.2504,0.2541,0.2567,0.2604,0.2619,0.2672,0.2703,0.2672,0.2728,0.2822,0.284,0.2857,0.2923,0.2945,0.2671,0.2671,0.2671,0,0.2182,0.2227,0.225,0.2288,0.2327,0.2354,0.2402,0.2434,0.249,0.2539,0.2504,0.2612,0.2599,0.27,0.2699,0.269,0.2743,0.2696,0.2833,0.285,0.2867,0.293,0.2954,0.2674,0.2674,0.2673,0.2673,0,0.2222,0.2258,0.228,0.2334,0.2373,0.2421,0.2467,0.2513,0.2538,0.2585,0.2687,0.2694,0.2766,0.2758,0.273,0.2851,0.2852,0.2834,0.2818,0.289,0.2952,0.2976,0.2678,0.2677,0.2676,0.2676,0,0,0.2229,0.2295,0.2305,0.2352,0.2411,0.2458,0.2515,0.2608,0.2685,0.2725,0.2839,0.2862,0.2896,0.2916,0.2919,0.2974,0.3088,0.2945,0.2948,0.3018,0.33,0.3159,0.3172,0.3106,0.3111,0.3115,0.3292,0,0.2265,0.234,0.2366,0.2451,0.2505,0.255,0.2608,0.2691,0.2755,0.2862,0.2918,0.3011,0.2951,0.2995,0.3048,0.3083,0.3157,0.3042,0.3214,0.3219,0.3093,0.3197,0.2933,0.3058,0.3316,0.332,0.3323,0,0.2315,0.2363,0.2445,0.2544,0.2574,0.2626,0.2766,0.2826,0.2962,0.3011,0.3126,0.3172,0.3275,0.3199,0.3345,0.3281,0.3303,0.3319,0.3327,0.3202,0.3124,0.303,0.3092,0.3363,0.336,0.3357,0.3354,0,0.2345,0.2434,0.2508,0.2539,0.2635,0.2704,0.277,0.2894,0.2968,0.3138,0.3222,0.335,0.3432,0.3494,0.3487,0.3446,0.3634,0.3583,0.3501,0.349,0.3302,0.3266,0.3723,0.3723,0.3723,0.3722,0.3722,0,0.2392,0.2463,0.2536,0.258,0.2702,0.2756,0.2894,0.2979,0.31,0.321,0.3322,0.3419,0.3513,0.3606,0.3585,0.3609,0.3725,0.3549,0.3544,0.3306,0.327,0.3555,0.3534,0.3729,0.3727,0.3726,0.3725,0,0.2435,0.2469,0.2568,0.2671,0.272,0.2816,0.2947,0.3025,0.3158,0.3309,0.3368,0.3519,0.3616,0.3687,0.3784,0.3733,0.3758,0.3741,0.3433,0.3387,0.3534,0.3513,0.3699,0.3696,0.3693,0.3691,0.3689,0,0.2472,0.2521,0.2633,0.2678,0.2737,0.2864,0.2929,0.3049,0.3119,0.3338,0.3399,0.3567,0.3616,0.3718,0.365,0.365,0.3728,0.3435,0.3292,0.3564,0.3542,0.3524,0.3507,0.3071,0.3065,0.3059,0.3055,0,0.2551,0.258,0.2636,0.2696,0.2777,0.2867,0.2975,0.3031,0.3165,0.3261,0.3364,0.3425,0.3526,0.3382,0.3401,0.3347,0.34,0.3319,0.3749,0.3086,0.2977,0.2953,0.2956,0.3006,0.3011,0.3014,0.3017,0.3019,0.2604,0.2623,0.2645,0.2706,0.2774,0.2821,0.2856,0.294,0.3001,0.3077,0.3177,0.3156,0.3189,0.3022,0.2941,0.2897,0.3103,0.3002,0.3018,0.304,0.2904,0.2793,0.2762,0.2765,0.2768,0.2771,0.2773,0,0.26,0.2591,0.2645,0.2674,0.2689,0.2752,0.2824,0.2802,0.2811,0.2856,0.2856,0.2556,0.2496,0.2546,0.2401,0.2406,0.2366,0.2329,0.2276,0.2327,0.2373,0.22,0.1873,0.187,0.1867,0.1864,0,0,0.258,0.2576,0.2566,0.2562,0.2579,0.2538,0.2544,0.2525,0.2518,0.2365,0.227,0.2367,0.247,0.2118,0.2091,0.1978,0.2128,0.1896,0.2625,0.2614,0.2655,0.2774,0.2568,0,0,0,0,0]},{"header":{"parameterUnit":"m.s-1","parameterCategory":2,"la1":30.2991,"la2":30.254,"lo1":-89.0895,"lo2":-89.0444,"dy":0.0017,"dx":0.0017,"nx":28,"ny":28,"refTime":"2025-06-14T03:00:00:Z","depth":"2","parameterNumber":3,"parameterNumberName":"V-component_of_CURRENTS"},"data":[0,0,0,0,0,0,0,0,0,0,0,0,0,0,0,0,0,0,0,0,0,0,0,0,0,0,0,0,0,0,0,0,0,0,0,0,0,0,0,0,0,0,0,0,0,0,0,0,0,0,0,0,0,0,0,0,0,0,-0.0072,-0.0072,0,-0.0116,-0.0117,-0.0117,-0.0159,-0.0159,-0.016,-0.016,-0.0251,-0.0253,-0.0255,0,0,0,0,0,0,0,0,0,0,0,0,0,-0.0049,-0.0049,-0.0072,-0.0072,-0.0072,-0.0116,-0.0117,-0.0117,-0.0159,-0.0159,-0.016,-0.016,-0.0251,-0.0253,-0.0256,0,0,0,0,0,0,0,0,0,0,0,0,0,-0.0074,-0.0049,-0.0072,-0.0097,-0.01,-0.0116,-0.0117,-0.0118,-0.0159,-0.0159,-0.016,-0.016,-0.025,-0.0253,-0.0256,-0.0265,0,0,-0.0266,-0.0267,0,0,0,0,0,0,0,0,-0.0073,-0.0075,-0.0093,-0.0095,-0.0098,-0.0131,-0.0142,-0.0169,-0.0159,-0.0139,-0.016,-0.0161,-0.0214,-0.022,-0.0229,-0.0269,-0.0273,-0.0266,-0.0268,-0.0269,-0.027,0,0,0,0,0,0,0,-0.0071,-0.0074,-0.0091,-0.0093,-0.0096,-0.0115,-0.0119,-0.0147,-0.0175,-0.014,-0.0143,-0.0145,-0.0216,-0.0226,-0.0232,-0.0275,-0.0266,-0.0269,-0.0271,-0.0272,-0.0325,-0.0324,0,0,0,0,0,0,-0.0059,-0.0072,-0.009,-0.0092,-0.0084,-0.0114,-0.0119,-0.0121,-0.0174,-0.0181,-0.0144,-0.0146,-0.022,-0.0228,-0.0235,-0.0235,-0.0269,-0.0272,-0.0274,-0.0325,-0.0325,-0.0324,0,0,0,0,0,0,-0.0059,-0.0061,-0.0088,-0.0082,-0.0086,-0.0114,-0.0116,-0.0122,-0.0128,-0.0176,-0.0185,-0.0144,-0.0221,-0.0231,-0.0253,-0.0239,-0.0273,-0.0276,-0.0326,-0.0325,-0.0324,-0.0243,0,0,0,0,0,0,-0.0058,-0.006,-0.0057,-0.0081,-0.0086,-0.0088,-0.0116,-0.0122,-0.0128,-0.0131,-0.0179,-0.0188,-0.0222,-0.0248,-0.0256,-0.0244,-0.0279,-0.0326,-0.0325,-0.0324,-0.0247,-0.024,-0.0234,0,0,0,0,0,-0.0057,-0.0044,-0.0057,-0.0059,-0.0081,-0.0088,-0.0092,-0.0115,-0.0127,-0.0124,-0.0156,-0.0186,-0.0248,-0.025,-0.0259,-0.0248,-0.0327,-0.0326,-0.0325,-0.0249,-0.0241,-0.0234,0,0,0,0,0,0,-0.0029,-0.0048,-0.0062,-0.0055,-0.0068,-0.0094,-0.0091,-0.0107,-0.0129,-0.0133,-0.018,-0.0191,-0.0208,-0.0238,-0.0239,-0.0261,-0.0292,-0.0293,-0.0232,-0.0224,-0.0218,-0.0184,-0.0281,0,0,0,0,0,-0.0022,-0.0021,-0.0041,-0.0036,-0.0039,-0.0064,-0.0069,-0.0083,-0.0105,-0.0116,-0.0147,-0.0182,-0.0211,-0.0224,-0.0257,-0.0266,-0.029,-0.0266,-0.0259,-0.0254,-0.0233,-0.025,-0.0242,-0.032,-0.032,-0.032,0,0,-0.0011,-0.002,-0.002,-0.003,-0.0043,-0.0037,-0.0068,-0.0068,-0.0063,-0.0122,-0.0125,-0.0163,-0.021,-0.0222,-0.0232,-0.0244,-0.0249,-0.0252,-0.0247,-0.0229,-0.0248,-0.024,-0.0233,-0.032,-0.032,-0.032,0,0,0.002,0.0006,0.002,0.0013,0.0003,-0.0012,-0.0008,-0.0028,-0.0035,-0.0045,-0.0085,-0.0105,-0.0154,-0.0174,-0.0194,-0.0171,-0.0218,-0.019,-0.0127,-0.0144,-0.0137,-0.0131,-0.0167,-0.0165,-0.0183,-0.0183,-0.0183,0,0.0036,0.0048,0.0024,0.0037,0.0043,0.0005,0.0028,0.0012,-0.0012,0.0,-0.0036,-0.0075,-0.0126,-0.012,-0.0123,-0.0154,-0.018,-0.0151,-0.0133,-0.0128,-0.0124,-0.0162,-0.0161,-0.0179,-0.0179,-0.018,-0.018,0,0.0076,0.0086,0.0096,0.0097,0.0101,0.0113,0.0095,0.0097,0.0079,0.0071,0.0073,0.0012,0.0,-0.0032,-0.0078,-0.0065,-0.0101,-0.0126,-0.0147,-0.011,-0.0154,-0.0154,-0.0173,-0.0175,-0.0176,-0.0177,0,0,0.0111,0.0123,0.0126,0.0154,0.0138,0.0158,0.0164,0.0181,0.0214,0.0175,0.0219,0.015,0.0134,0.0111,0.0058,0.0029,0.0013,-0.0033,-0.0036,-0.0059,-0.0037,-0.0102,-0.0109,-0.001,-0.0009,-0.0008,-0.0085,0,0.0151,0.0201,0.019,0.0246,0.0276,0.0255,0.0274,0.0284,0.0278,0.0306,0.0261,0.0272,0.0184,0.0187,0.0146,0.005,0.0019,0.0036,-0.0077,-0.008,-0.0134,-0.0109,-0.0085,-0.0155,-0.0086,-0.0086,-0.0086,0,0.0194,0.0227,0.0292,0.0346,0.036,0.0392,0.0446,0.0461,0.0474,0.0468,0.0471,0.0435,0.0401,0.0318,0.0195,0.0208,0.01,0.0014,0.0009,-0.0073,-0.0144,-0.0179,-0.0158,-0.0087,-0.0087,-0.0087,-0.0087,0,0.025,0.0303,0.0368,0.0382,0.0428,0.0476,0.0507,0.0529,0.0565,0.0596,0.0636,0.0574,0.0572,0.0432,0.0239,0.0226,0.0085,0.0049,-0.0107,-0.0114,-0.0125,-0.0134,-0.0024,-0.0024,-0.0024,-0.0024,-0.0023,0,0.0298,0.0357,0.0415,0.0454,0.0567,0.0567,0.0678,0.0693,0.0722,0.0802,0.075,0.0773,0.0602,0.0495,0.0296,0.0087,0.0132,-0.0085,-0.0129,-0.0101,-0.0107,-0.007,-0.0074,-0.0027,-0.0026,-0.0025,-0.0025,0,0.0355,0.0377,0.0472,0.0552,0.0601,0.0689,0.0795,0.0859,0.0883,0.0986,0.1008,0.0934,0.0798,0.0595,0.036,0.0183,-0.003,-0.0116,-0.0087,-0.0126,-0.0232,-0.0231,-0.0274,-0.0277,-0.0279,-0.0281,-0.0282,0,0.0393,0.0443,0.0566,0.0636,0.0689,0.0817,0.0902,0.0945,0.1009,0.1073,0.1123,0.104,0.0964,0.059,0.0271,-0.0051,-0.0075,-0.0232,-0.0252,-0.0214,-0.0253,-0.0248,-0.0245,-0.0243,-0.0244,-0.0245,-0.0246,0,0.0483,0.0521,0.0593,0.0717,0.0835,0.097,0.1093,0.1165,0.123,0.1285,0.1288,0.1225,0.0925,0.0584,0.0177,-0.0047,-0.0181,-0.0263,-0.0209,-0.019,-0.0194,-0.0229,-0.0224,-0.0255,-0.0254,-0.0253,-0.0253,-0.0252,0.0555,0.0612,0.0688,0.0794,0.0934,0.1086,0.1201,0.1304,0.1398,0.1483,0.1383,0.1294,0.0956,0.0404,0.0061,-0.0262,-0.0257,-0.0373,-0.0366,-0.0359,-0.0348,-0.0355,-0.0446,-0.0446,-0.0446,-0.0447,-0.0447,0,0.0602,0.0651,0.0759,0.0886,0.1016,0.1117,0.1293,0.1349,0.1467,0.1543,0.1508,0.1123,0.0781,0.0427,-0.0059,-0.0375,-0.0373,-0.0462,-0.0378,-0.0369,-0.0362,-0.0347,-0.0447,-0.0448,-0.0448,-0.0449,0,0,0.0625,0.07,0.0722,0.0908,0.1044,0.1231,0.1353,0.1407,0.1447,0.1471,0.144,0.1319,0.0868,0.0515,0.0102,-0.0153,-0.0185,-0.0212,-0.0185,-0.003,-0.0017,-0.0295,-0.0261,0,0,0,0,0]}],[{"header":{"parameterUnit":"m.s-1","parameterCategory":2,"la1":30.2991,"la2":30.254,"lo1":-89.0895,"lo2":-89.0444,"dy":0.0017,"dx":0.0017,"nx":28,"ny":28,"refTime":"2025-06-14T03:00:00:Z","depth":"4","parameterNumber":2,"parameterNumberName":"U-component_of_CURRENTS"},"data":[0,0,0,0,0,0,0,0,0,0,0,0,0,0,0,0,0,0,0,0,0,0,0,0,0,0,0,0,0,0,0,0,0,0,0,0,0,0,0,0,0,0,0,0,0,0,0,0,0,0,0,0,0,0,0,0,0,0,0.132,0.1321,0,0.1338,0.1338,0.1338,0.135,0.135,0.135,0.1351,0.1412,0.1413,0.1414,0,0,0,0,0,0,0,0,0,0,0,0,0,0.1272,0.1273,0.132,0.1321,0.1322,0.1338,0.1338,0.1337,0.1349,0.135,0.1351,0.1351,0.1411,0.1413,0.1414,0,0,0,0,0,0,0,0,0,0,0,0,0,0.1288,0.1273,0.132,0.1332,0.1334,0.1338,0.1338,0.1337,0.1349,0.135,0.1351,0.1351,0.1411,0.1413,0.1414,0.1411,0,0,0.142,0.1421,0,0,0,0,0,0,0,0,0.1287,0.1289,0.133,0.1332,0.1333,0.1346,0.1343,0.1366,0.1349,0.1339,0.1351,0.1352,0.1396,0.1399,0.1394,0.1414,0.1417,0.142,0.1421,0.1422,0.1422,0,0,0,0,0,0,0,0.1286,0.1288,0.1323,0.1331,0.1333,0.1329,0.1331,0.1347,0.1361,0.134,0.1342,0.135,0.1397,0.1392,0.1396,0.1418,0.142,0.1421,0.1423,0.1423,0.1544,0.1546,0,0,0,0,0,0,0.1292,0.1287,0.1323,0.1324,0.1316,0.1329,0.1332,0.1338,0.136,0.1365,0.135,0.1351,0.1389,0.1394,0.1398,0.1475,0.1422,0.1423,0.1424,0.1542,0.1544,0.1547,0,0,0,0,0,0,0.1291,0.1295,0.1322,0.1309,0.1313,0.133,0.1336,0.1338,0.1359,0.1368,0.1373,0.1372,0.139,0.1396,0.144,0.1475,0.1424,0.1426,0.1539,0.1542,0.1545,0.158,0,0,0,0,0,0,0.129,0.1294,0.1311,0.131,0.1314,0.134,0.1336,0.1338,0.1363,0.1365,0.1388,0.1392,0.1391,0.1437,0.1442,0.1477,0.1427,0.1536,0.1541,0.1544,0.1576,0.1584,0.159,0,0,0,0,0,0.1288,0.1298,0.1311,0.1317,0.1333,0.1341,0.1342,0.1353,0.1364,0.1374,0.1398,0.1393,0.1466,0.144,0.1445,0.1481,0.1535,0.1539,0.1544,0.1573,0.1582,0.159,0,0,0,0,0,0,0.1283,0.1301,0.1315,0.1331,0.1347,0.1345,0.1361,0.1368,0.1392,0.1408,0.1411,0.1418,0.147,0.1476,0.1447,0.1531,0.1503,0.1509,0.1524,0.1533,0.154,0.156,0.1429,0,0,0,0,0,0.1292,0.131,0.1323,0.1342,0.1351,0.1363,0.1373,0.1384,0.1401,0.1413,0.1438,0.1468,0.1489,0.1511,0.1532,0.1575,0.1594,0.1606,0.1614,0.162,0.1643,0.1705,0.1719,0.1562,0.1562,0.1562,0,0,0.1298,0.1312,0.1323,0.1344,0.1358,0.1371,0.137,0.1397,0.1419,0.1417,0.1473,0.1494,0.1506,0.1552,0.1578,0.1565,0.1672,0.1626,0.163,0.1651,0.1711,0.1726,0.174,0.1566,0.1565,0.1564,0,0,0.1305,0.1331,0.1345,0.1359,0.1391,0.1398,0.1412,0.1438,0.1463,0.1509,0.1518,0.157,0.1603,0.1628,0.1636,0.1702,0.1705,0.171,0.1767,0.1826,0.1839,0.1851,0.1878,0.1892,0.1718,0.1718,0.1718,0,0.1316,0.1332,0.1351,0.1365,0.1387,0.1412,0.1433,0.1453,0.1498,0.1531,0.1539,0.1629,0.1641,0.1696,0.1721,0.1719,0.1743,0.1724,0.1834,0.1847,0.1858,0.1883,0.1898,0.172,0.172,0.172,0.1719,0,0.1318,0.1347,0.1358,0.1388,0.1413,0.1438,0.147,0.1525,0.1567,0.1582,0.167,0.1705,0.1764,0.1774,0.1764,0.1856,0.1842,0.1829,0.1807,0.1876,0.1898,0.1913,0.1723,0.1722,0.1722,0.1721,0,0,0.1292,0.1351,0.1354,0.1386,0.1433,0.145,0.1516,0.1569,0.1617,0.1683,0.1762,0.181,0.1847,0.1865,0.1881,0.1937,0.2027,0.1927,0.1929,0.1944,0.2145,0.1959,0.1957,0.2034,0.2037,0.204,0.212,0,0.1291,0.1327,0.1359,0.1408,0.1432,0.1499,0.1557,0.1616,0.1666,0.1751,0.1816,0.1894,0.187,0.1936,0.1979,0.2025,0.2073,0.2006,0.2086,0.2088,0.1906,0.1971,0.2051,0.2131,0.2134,0.2137,0.2139,0,0.1264,0.1302,0.1353,0.1443,0.1462,0.1516,0.1628,0.1685,0.179,0.1839,0.1926,0.1971,0.2083,0.2065,0.2169,0.2129,0.2149,0.2172,0.2175,0.2005,0.1931,0.2054,0.2166,0.2164,0.2162,0.216,0.2158,0,0.1219,0.1289,0.1342,0.1367,0.1472,0.1552,0.1633,0.173,0.1781,0.1936,0.1986,0.2094,0.2167,0.2242,0.2258,0.2247,0.235,0.2336,0.2183,0.2169,0.2296,0.2283,0.2421,0.2421,0.242,0.242,0.242,0,0.1182,0.1218,0.1345,0.1375,0.1442,0.1562,0.164,0.1739,0.1883,0.192,0.2049,0.2084,0.2218,0.2265,0.2303,0.2263,0.2382,0.2209,0.2187,0.2305,0.2293,0.2305,0.2291,0.2423,0.2422,0.2422,0.2421,0,0.1092,0.118,0.123,0.1375,0.1421,0.1481,0.1622,0.1671,0.1847,0.1923,0.1999,0.2106,0.2176,0.2255,0.2354,0.2273,0.2306,0.2259,0.2368,0.2348,0.2083,0.207,0.2135,0.2129,0.2124,0.212,0.2117,0,0.104,0.1066,0.1188,0.1195,0.1266,0.1365,0.142,0.1626,0.1684,0.1881,0.1914,0.2041,0.2082,0.2073,0.2163,0.2236,0.22,0.219,0.2157,0.2086,0.2059,0.2054,0.2047,0.2109,0.2108,0.2107,0.2106,0,0.0903,0.0962,0.0992,0.1045,0.1108,0.1134,0.127,0.1316,0.1551,0.1708,0.1797,0.1861,0.1896,0.1959,0.2004,0.2047,0.2198,0.2139,0.215,0.212,0.2056,0.2033,0.2032,0.2089,0.2091,0.2093,0.2094,0,0.0765,0.0746,0.0809,0.0845,0.0899,0.0935,0.1012,0.1136,0.1257,0.1566,0.1555,0.1714,0.1846,0.1855,0.1901,0.193,0.1921,0.1864,0.1889,0.1909,0.1795,0.1679,0.1591,0,0,0,0,0,0.0616,0.0596,0.0596,0.0646,0.0709,0.0767,0.0915,0.1023,0.1274,0.1303,0.1463,0.1522,0.1604,0.1664,0.1656,0.1778,0.1902,0.1754,0.1841,0.1996,0.2015,0.19,0,0,0,0,0,0,0.0509,0.0493,0.0532,0.0495,0.0511,0.0583,0.068,0.0844,0.0902,0.1154,0.1214,0.1399,0.1501,0.1597,0.1613,0.1639,0.1655,0.1874,0.1869,0.1985,0.2003,0.2018,0.1907,0,0,0,0,0]},{"header":{"parameterUnit":"m.s-1","parameterCategory":2,"la1":30.2991,"la2":30.254,"lo1":-89.0895,"lo2":-89.0444,"dy":0.0017,"dx":0.0017,"nx":28,"ny":28,"refTime":"2025-06-14T03:00:00:Z","depth":"4","parameterNumber":3,"parameterNumberName":"V-component_of_CURRENTS"},"data":[0,0,0,0,0,0,0,0,0,0,0,0,0,0,0,0,0,0,0,0,0,0,0,0,0,0,0,0,0,0,0,0,0,0,0,0,0,0,0,0,0,0,0,0,0,0,0,0,0,0,0,0,0,0,0,0,0,0,-0.0071,-0.0071,0,-0.0099,-0.01,-0.01,-0.0129,-0.013,-0.013,-0.013,-0.0198,-0.02,-0.0201,0,0,0,0,0,0,0,0,0,0,0,0,0,-0.0062,-0.0062,-0.0071,-0.0071,-0.0071,-0.0099,-0.01,-0.01,-0.0129,-0.013,-0.013,-0.013,-0.0198,-0.02,-0.0202,0,0,0,0,0,0,0,0,0,0,0,0,0,-0.0077,-0.0062,-0.0071,-0.0089,-0.009,-0.0099,-0.01,-0.01,-0.0129,-0.013,-0.013,-0.013,-0.0197,-0.02,-0.0202,-0.0207,0,0,-0.0209,-0.021,0,0,0,0,0,0,0,0,-0.0076,-0.0077,-0.0086,-0.0087,-0.0089,-0.011,-0.0122,-0.0138,-0.0129,-0.0115,-0.013,-0.0131,-0.0172,-0.0176,-0.0181,-0.021,-0.0213,-0.0209,-0.021,-0.0211,-0.0212,0,0,0,0,0,0,0,-0.0075,-0.0076,-0.0083,-0.0086,-0.0088,-0.0102,-0.0104,-0.0125,-0.0142,-0.0117,-0.0119,-0.012,-0.0173,-0.0179,-0.0183,-0.0214,-0.0209,-0.0211,-0.0212,-0.0213,-0.0267,-0.0267,0,0,0,0,0,0,-0.0067,-0.0075,-0.0082,-0.0084,-0.0082,-0.0101,-0.0104,-0.0104,-0.0141,-0.0147,-0.012,-0.0121,-0.0175,-0.018,-0.0186,-0.0197,-0.0211,-0.0214,-0.0215,-0.0267,-0.0267,-0.0267,0,0,0,0,0,0,-0.0067,-0.0068,-0.0081,-0.0079,-0.0082,-0.0101,-0.01,-0.0104,-0.0111,-0.0143,-0.0149,-0.0122,-0.0175,-0.0182,-0.0201,-0.02,-0.0215,-0.0217,-0.0267,-0.0267,-0.0267,-0.0219,0,0,0,0,0,0,-0.0067,-0.0067,-0.0065,-0.0079,-0.0082,-0.0081,-0.01,-0.0104,-0.011,-0.0113,-0.0147,-0.0154,-0.0176,-0.0198,-0.0204,-0.0204,-0.0218,-0.0267,-0.0267,-0.0267,-0.022,-0.0217,-0.0215,0,0,0,0,0,-0.0066,-0.0057,-0.0065,-0.0066,-0.0078,-0.0081,-0.0083,-0.01,-0.011,-0.0108,-0.0132,-0.0153,-0.0203,-0.0199,-0.0206,-0.0207,-0.0267,-0.0267,-0.0267,-0.0222,-0.0218,-0.0215,0,0,0,0,0,0,-0.0049,-0.0059,-0.0068,-0.0062,-0.007,-0.0085,-0.0084,-0.0096,-0.0113,-0.0118,-0.015,-0.0158,-0.0176,-0.0198,-0.0193,-0.0224,-0.024,-0.0241,-0.0203,-0.02,-0.0197,-0.02,-0.022,0,0,0,0,0,-0.0044,-0.0043,-0.0054,-0.005,-0.0051,-0.0068,-0.0072,-0.0082,-0.0098,-0.0106,-0.013,-0.0158,-0.0182,-0.0195,-0.0219,-0.0232,-0.0266,-0.0239,-0.0236,-0.0233,-0.0241,-0.0286,-0.0288,-0.0268,-0.0268,-0.0268,0,0,-0.0037,-0.0042,-0.0042,-0.0046,-0.0054,-0.005,-0.0072,-0.0073,-0.0072,-0.0111,-0.0119,-0.0148,-0.0183,-0.0199,-0.0209,-0.0217,-0.0256,-0.0233,-0.023,-0.024,-0.0287,-0.0289,-0.029,-0.0268,-0.0268,-0.0268,0,0,-0.0019,-0.0025,-0.0018,-0.002,-0.0027,-0.0036,-0.0034,-0.0048,-0.0057,-0.0067,-0.0098,-0.0127,-0.0155,-0.0185,-0.0203,-0.02,-0.0239,-0.0205,-0.0192,-0.0235,-0.0238,-0.024,-0.0279,-0.0285,-0.0203,-0.0203,-0.0203,0,-0.0012,-0.0005,-0.0015,-0.0007,-0.0007,-0.0026,-0.0017,-0.0025,-0.0044,-0.0061,-0.0063,-0.0128,-0.0151,-0.0188,-0.0183,-0.0194,-0.0223,-0.0199,-0.0231,-0.0234,-0.0238,-0.0277,-0.0285,-0.0201,-0.0201,-0.0201,-0.0201,0,0.001,0.0016,0.0022,0.0024,0.0027,0.003,0.0021,0.0015,0.0001,-0.0022,-0.006,-0.0094,-0.0138,-0.0146,-0.016,-0.0196,-0.0211,-0.0221,-0.0238,-0.0237,-0.0279,-0.0287,-0.0197,-0.0198,-0.0199,-0.02,0,0,0.0014,0.0033,0.0032,0.0037,0.0041,0.0042,0.0048,0.0032,0.0019,-0.0007,-0.0036,-0.0074,-0.0108,-0.0132,-0.016,-0.0194,-0.0231,-0.021,-0.0213,-0.0245,-0.0326,-0.0287,-0.0293,-0.0244,-0.0245,-0.0247,-0.0343,0,0.0027,0.005,0.0057,0.0073,0.008,0.0073,0.0079,0.0062,0.0039,0.0009,-0.0045,-0.0074,-0.0098,-0.0112,-0.0155,-0.021,-0.0253,-0.0204,-0.0327,-0.0331,-0.0293,-0.0302,-0.0251,-0.035,-0.0352,-0.0353,-0.0354,0,0.0032,0.0049,0.0073,0.0086,0.0089,0.0101,0.009,0.0095,0.0051,0.0032,-0.0019,-0.0057,-0.0112,-0.0125,-0.0237,-0.0203,-0.0264,-0.0309,-0.0314,-0.0304,-0.0308,-0.0355,-0.0371,-0.0369,-0.0368,-0.0367,-0.0366,0,0.0022,0.0049,0.0068,0.0075,0.0097,0.0104,0.0112,0.009,0.0094,0.0048,0.0043,-0.0047,-0.0078,-0.0167,-0.0243,-0.0245,-0.0364,-0.0381,-0.0415,-0.0414,-0.0441,-0.0438,-0.0475,-0.0475,-0.0475,-0.0474,-0.0474,0,0.002,0.003,0.0065,0.0077,0.0101,0.0109,0.0118,0.0118,0.0106,0.0116,0.0057,0.0048,-0.0087,-0.0161,-0.0246,-0.0345,-0.0371,-0.042,-0.0437,-0.0417,-0.041,-0.0447,-0.0443,-0.0478,-0.0477,-0.0476,-0.0476,0,0.0008,0.0024,0.0055,0.009,0.0101,0.012,0.0152,0.0166,0.0155,0.017,0.017,0.0102,0.002,-0.0108,-0.0257,-0.0335,-0.0435,-0.0468,-0.0429,-0.0441,-0.0465,-0.0457,-0.0535,-0.0534,-0.0534,-0.0534,-0.0533,0,0.0013,0.0025,0.0077,0.0117,0.0139,0.0165,0.0199,0.0193,0.0222,0.022,0.0244,0.0163,0.0109,-0.0067,-0.0216,-0.0397,-0.0419,-0.0489,-0.0492,-0.0463,-0.0472,-0.0465,-0.0457,-0.0532,-0.0532,-0.0532,-0.0532,0,0.004,0.0055,0.0095,0.0175,0.022,0.0262,0.0308,0.0316,0.033,0.0309,0.0323,0.0231,0.0124,-0.0037,-0.0178,-0.0305,-0.0452,-0.0485,-0.0488,-0.0492,-0.0461,-0.0469,-0.0462,-0.0531,-0.0531,-0.0531,-0.0531,0,0.0083,0.0117,0.0186,0.0245,0.0309,0.037,0.0365,0.0408,0.0415,0.0405,0.0403,0.0296,0.0203,0.0011,-0.0107,-0.0236,-0.0285,-0.0339,-0.035,-0.0354,-0.0268,-0.02,-0.0208,0,0,0,0,0,0.0133,0.0183,0.0261,0.0334,0.0394,0.0418,0.0465,0.0455,0.043,0.0463,0.0436,0.0356,0.0172,0.0082,-0.0039,-0.0124,-0.0323,-0.0273,-0.0394,-0.0522,-0.0524,-0.0449,0,0,0,0,0,0,0.0178,0.0256,0.0281,0.0395,0.0441,0.051,0.0525,0.0512,0.0519,0.0482,0.0392,0.0321,0.0142,0.0249,-0.004,-0.0085,-0.0179,-0.0372,-0.0375,-0.0521,-0.0522,-0.0524,-0.0448,0,0,0,0,0]}]]